This demonstration page uses our WeatherBlox Daily Observations layout. Learn more.

Left ArrowRight Arrow

Hourly Observations for August 7, 2020

Temp ( °F °C ) Dew Point ( °F °C ) Humidity (%) Winds ( mph kmh ) Pressure ( in mb ) Visibility ( mi km ) Precip ( " mm )
12:15 am 00:15 Clear 72 22.1 69 20.5 91 91 S 7 11 29.84 1011 10 16 N/A
12:35 am 00:35 Clear 72 22 69 20.3 90 90 SSE 7 11 29.85 1011 10 16 N/A
12:55 am 00:55 Clear 71 21.7 68 20.1 91 91 S 7 11 29.86 1011 10 16 N/A
1:15 am 01:15 Clear 71 21.5 68 20 91 91 S 5 7 29.87 1011 10 16 N/A
1:35 am 01:35 Clear 70 21.3 68 20 92 92 S 6 9 29.87 1011 10 16 N/A
1:55 am 01:55 Clear 70 21 67 19.7 92 92 S 5 7 29.86 1011 10 16 N/A
2:15 am 02:15 Clear 69 20.7 67 19.6 93 93 S 3 6 29.85 1011 10 16 N/A
2:35 am 02:35 Clear 69 20.6 67 19.6 94 94 S 5 7 29.84 1011 10 16 N/A
2:55 am 02:55 Clear 69 20.6 67 19.6 94 94 SSE 6 9 29.84 1011 10 16 N/A
3:15 am 03:15 Partly Cloudy 69 20.6 67 19.7 95 95 SSE 6 9 29.84 1011 7 11 N/A
3:35 am 03:35 Mostly Cloudy 69 20.7 68 19.8 95 95 SSE 8 13 29.84 1011 7 11 N/A
3:55 am 03:55 Cloudy 70 21 68 20 94 94 SE 8 13 29.83 1010 7 11 N/A
4:15 am 04:15 Cloudy with Mist and Fog 70 21 68 20.1 95 95 SSE 7 11 29.82 1010 5 8 N/A
4:35 am 04:35 Cloudy with Mist and Fog 70 21 68 20.2 95 95 SSE 8 13 29.81 1009 5 8 N/A
4:55 am 04:55 Cloudy with Mist and Fog 70 21.1 69 20.3 95 95 SSE 9 15 29.81 1009 4 6 N/A
5:15 am 05:15 Cloudy with Mist and Fog 70 21.2 69 20.5 96 96 SSE 8 13 29.81 1009 4 6 N/A
5:35 am 05:35 Cloudy with Mist and Fog 70 21.3 69 20.6 96 96 SSE 9 15 29.81 1009 4 6 N/A
5:55 am 05:55 Cloudy with Mist and Fog 70 21.3 69 20.6 96 96 SSE 12 19 29.81 1009 3 5 N/A
6:15 am 06:15 Cloudy with Mist and Fog 71 21.5 69 20.7 95 95 SSE 10 17 29.82 1010 2 3 N/A
6:35 am 06:35 Cloudy with Mist and Fog 71 21.5 70 20.9 96 96 SSE 10 17 29.82 1010 2 3 N/A
6:55 am 06:55 Cloudy with Mist and Fog 71 21.5 70 21 97 97 SSE 7 11 29.82 1010 2 2 N/A
7:15 am 07:15 Cloudy with Mist and Fog 71 21.5 70 21 97 97 SSE 9 15 29.82 1010 1 2 N/A
7:35 am 07:35 Cloudy with Mist and Fog 71 21.6 70 21.1 97 97 SSE 10 17 29.80 1009 2 2 N/A
7:55 am 07:55 Cloudy with Mist and Fog 72 22 71 21.4 96 96 SSE 8 13 29.80 1009 3 4 N/A
8:15 am 08:15 Cloudy with Mist and Fog 72 22.2 71 21.5 96 96 SSE 10 17 29.80 1009 4 6 N/A
8:35 am 08:35 Cloudy with Mist and Fog 73 22.6 71 21.6 94 94 SSE 8 13 29.81 1009 5 8 N/A
8:55 am 08:55 Cloudy 73 23 71 21.5 91 91 S 14 22 29.81 1010 7 11 N/A
9:15 am 09:15 Cloudy 73 23 70 21.2 90 90 SSE 12 19 29.82 1010 7 11 N/A
9:35 am 09:35 Cloudy 74 23.1 71 21.5 91 91 S 13 20 29.82 1010 7 11 N/A
9:55 am 09:55 Cloudy 75 23.8 71 21.5 87 87 S 9 15 29.82 1010 10 16 N/A
10:15 am 10:15 Cloudy 75 23.8 70 21.3 86 86 SSE 9 15 29.82 1010 10 16 N/A
10:35 am 10:35 Cloudy 76 24.3 70 21 82 82 S 12 19 29.81 1010 10 16 N/A
10:55 am 10:55 Cloudy 76 24.2 70 21 82 82 S 12 19 29.81 1010 10 16 N/A
11:15 am 11:15 Cloudy 76 24.3 70 21.1 82 82 S 9 15 29.82 1010 10 16 N/A
11:35 am 11:35 Cloudy 76 24.5 70 21 81 81 S 10 17 29.82 1010 10 16 N/A
11:55 am 11:55 Cloudy 77 25 70 21.1 79 79 SSW 7 11 29.81 1009 10 16 N/A
12:15 pm 12:15 Cloudy 78 25.5 70 21.1 77 77 SSW 7 11 29.80 1009 10 16 N/A
12:35 pm 12:35 Cloudy 79 26.2 70 21.2 74 74 S 13 20 29.80 1009 10 16 N/A
12:55 pm 12:55 Cloudy 80 26.9 71 21.5 72 72 S 13 20 29.77 1008 10 16 N/A
1:15 pm 13:15 Partly Cloudy 81 27.4 71 21.7 71 71 S 12 19 29.77 1008 10 16 N/A
1:35 pm 13:35 Sunny 82 27.9 71 21.7 69 69 SSE 9 15 29.76 1008 10 16 N/A
1:55 pm 13:55 Sunny 83 28.6 71 21.8 67 67 SSE 8 13 29.75 1007 10 16 N/A
2:15 pm 14:15 Sunny 85 29.5 72 22.4 66 66 SSE 9 15 29.74 1007 10 16 N/A
2:35 pm 14:35 Sunny 86 30.1 72 22.1 62 62 SSE 10 17 29.74 1007 10 16 N/A
2:55 pm 14:55 Sunny 86 30.1 72 22.1 62 62 SSE 12 19 29.73 1007 10 16 N/A
3:15 pm 15:15 Sunny 86 30.2 71 21.4 59 59 SSE 10 17 29.73 1007 10 16 N/A
3:35 pm 15:35 Sunny 87 30.3 72 22.2 62 62 SSE 13 20 29.73 1007 10 16 N/A
3:55 pm 15:55 Sunny 87 30.3 72 22.2 62 62 SSE 9 15 29.73 1007 10 16 N/A
4:15 pm 16:15 Sunny 87 30.6 72 22.1 60 60 SSE 10 17 29.72 1007 10 16 N/A
4:35 pm 16:35 Sunny 87 30.7 72 22.1 60 60 SSE 13 20 29.70 1006 10 16 N/A
4:55 pm 16:55 Sunny 88 31 71 21.8 58 58 S 13 20 29.72 1006 10 16 N/A
5:15 pm 17:15 Sunny 87 30.8 72 22.2 60 60 SSE 13 20 29.72 1006 10 16 N/A
5:35 pm 17:35 Sunny 88 31 71 21.9 58 58 SSE 13 20 29.70 1006 10 16 N/A
5:55 pm 17:55 Sunny 88 31 71 21.9 58 58 SSE 10 17 29.70 1006 10 16 N/A
6:15 pm 18:15 Sunny 88 30.9 72 22.3 60 60 SSE 9 15 29.70 1006 10 16 N/A
6:35 pm 18:35 Sunny 87 30.8 72 22.2 60 60 SSE 10 17 29.70 1006 10 16 N/A
6:55 pm 18:55 Sunny 87 30.5 71 21.7 59 59 SSE 12 19 29.69 1006 10 16 N/A
7:15 pm 19:15 Sunny 86 30 72 22.2 63 63 SSE 7 11 29.70 1006 10 16 N/A
7:35 pm 19:35 Sunny 85 29.5 72 22.3 65 65 SSE 7 11 29.70 1006 10 16 N/A
7:55 pm 19:55 Sunny 84 28.7 73 22.5 69 69 SSE 6 9 29.71 1006 10 16 N/A
8:15 pm 20:15 Sunny 82 27.6 72 22.3 73 73 SSE 6 9 29.72 1006 10 16 N/A
8:35 pm 20:35 Sunny 80 26.5 72 22.1 77 77 SE 6 9 29.73 1007 10 16 N/A
8:55 pm 20:55 Clear 77 25.2 71 21.8 82 82 SE 8 13 29.74 1007 10 16 N/A
9:15 pm 21:15 Clear 76 24.5 71 21.6 84 84 SE 8 13 29.74 1007 10 16 N/A
9:35 pm 21:35 Clear 76 24.3 70 21.2 83 83 SE 8 13 29.74 1007 10 16 N/A
9:55 pm 21:55 Clear 76 24.3 70 21 82 82 SSE 8 13 29.75 1008 10 16 N/A
10:15 pm 22:15 Clear 75 24 70 21 83 83 SSE 7 11 29.76 1008 10 16 N/A
10:35 pm 22:35 Clear 74 23.6 70 20.9 85 85 SSE 7 11 29.77 1008 10 16 N/A
10:55 pm 22:55 Clear 74 23.6 70 21 85 85 SSE 6 9 29.77 1008 10 16 N/A
11:15 pm 23:15 Clear 74 23.5 70 21 86 86 SSE 7 11 29.76 1008 10 16 N/A
11:35 pm 23:35 Clear 74 23.3 70 21 87 87 SSE 7 11 29.76 1008 10 16 N/A
11:55 pm 23:55 Clear 74 23.5 70 21.1 86 86 SSE 6 9 29.77 1008 10 16 N/A

Powered by AerisWeather